Time,TemperatureF,DewpointF,PressureIn,WindDirection,WindDirectionDegrees,WindSpeedMPH,WindSpeedGustMPH,Humidity,HourlyPrecipIn,Conditions,Clouds,dailyrainin,SoftwareType,DateUTC
2013-10-07 00:00:00,46.2,33.9,30.14,North,32767,4.0,21.0,62,0.00,,,0.00,Wunderground v.1.15,2013-10-07 05:00:00,
2013-10-07 00:10:00,46.1,34.6,30.14,North,32767,5.0,21.0,64,0.00,,,0.00,Wunderground v.1.15,2013-10-07 05:10:00,
2013-10-07 00:20:00,46.3,35.2,30.14,North,32767,5.0,5.0,65,0.00,,,0.00,Wunderground v.1.15,2013-10-07 05:20:00,
2013-10-07 00:30:00,45.6,34.9,30.14,North,32767,4.0,21.0,66,0.00,,,0.00,Wunderground v.1.15,2013-10-07 05:30:00,
2013-10-07 00:40:00,45.0,35.1,30.14,North,32767,5.0,5.0,68,0.00,,,0.00,Wunderground v.1.15,2013-10-07 05:40:00,
2013-10-07 00:50:00,45.1,35.9,30.13,North,32767,5.0,5.0,70,0.00,,,0.00,Wunderground v.1.15,2013-10-07 05:50:00,
2013-10-07 01:00:00,45.4,36.5,30.13,North,32767,5.0,5.0,71,0.00,,,0.00,Wunderground v.1.15,2013-10-07 06:00:00,
2013-10-07 01:10:00,45.7,36.8,30.13,North,32767,5.0,21.0,71,0.00,,,0.00,Wunderground v.1.15,2013-10-07 06:10:00,
2013-10-07 01:20:00,45.3,36.4,30.12,North,32767,4.0,4.0,71,0.00,,,0.00,Wunderground v.1.15,2013-10-07 06:20:00,
2013-10-07 01:30:00,45.2,36.4,30.13,North,32767,4.0,21.0,71,0.00,,,0.00,Wunderground v.1.15,2013-10-07 06:30:00,
2013-10-07 01:40:00,44.3,35.8,30.12,North,32767,2.0,21.0,72,0.00,,,0.00,Wunderground v.1.15,2013-10-07 06:40:00,
2013-10-07 01:50:00,43.8,35.4,30.12,North,32767,1.0,21.0,72,0.00,,,0.00,Wunderground v.1.15,2013-10-07 06:50:00,
2013-10-07 02:00:00,41.9,34.2,30.12,North,32767,2.0,2.0,74,0.00,,,0.00,Wunderground v.1.15,2013-10-07 07:00:00,
2013-10-07 02:10:00,41.3,34.6,30.12,North,32767,1.0,21.0,77,0.00,,,0.00,Wunderground v.1.15,2013-10-07 07:10:00,
2013-10-07 02:20:00,41.1,34.8,30.12,North,32767,1.0,21.0,78,0.00,,,0.00,Wunderground v.1.15,2013-10-07 07:20:00,
2013-10-07 02:30:00,41.9,35.9,30.13,North,32767,5.0,5.0,79,0.00,,,0.00,Wunderground v.1.15,2013-10-07 07:30:00,
2013-10-07 02:40:00,42.9,36.2,30.13,North,32767,4.0,4.0,77,0.00,,,0.00,Wunderground v.1.15,2013-10-07 07:40:00,
2013-10-07 02:50:00,43.7,36.6,30.13,North,32767,4.0,21.0,76,0.00,,,0.00,Wunderground v.1.15,2013-10-07 07:50:00,
2013-10-07 03:00:00,44.1,36.7,30.13,North,32767,3.0,5.0,75,0.00,,,0.00,Wunderground v.1.15,2013-10-07 08:00:00,
2013-10-07 03:10:00,43.7,36.6,30.13,North,32767,3.0,3.0,76,0.00,,,0.00,Wunderground v.1.15,2013-10-07 08:10:00,
2013-10-07 03:20:00,44.1,36.7,30.13,North,32767,3.0,3.0,75,0.00,,,0.00,Wunderground v.1.15,2013-10-07 08:20:00,
2013-10-07 03:30:00,43.6,36.9,30.13,North,32767,3.0,3.0,77,0.00,,,0.00,Wunderground v.1.15,2013-10-07 08:30:00,
2013-10-07 03:40:00,43.5,37.1,30.12,North,32767,2.0,2.0,78,0.00,,,0.00,Wunderground v.1.15,2013-10-07 08:40:00,
2013-10-07 03:50:00,43.3,36.9,30.12,North,32767,3.0,9.0,78,0.00,,,0.00,Wunderground v.1.15,2013-10-07 08:50:00,
2013-10-07 04:00:00,42.9,36.8,30.12,North,32767,3.0,9.0,79,0.00,,,0.00,Wunderground v.1.15,2013-10-07 09:00:00,
2013-10-07 04:10:00,43.3,36.9,30.12,North,32767,3.0,9.0,78,0.00,,,0.00,Wunderground v.1.15,2013-10-07 09:10:00,
2013-10-07 04:20:00,42.2,36.2,30.12,North,32767,1.0,9.0,79,0.00,,,0.00,Wunderground v.1.15,2013-10-07 09:20:00,
2013-10-07 04:30:00,42.4,36.7,30.12,North,32767,1.0,9.0,80,0.00,,,0.00,Wunderground v.1.15,2013-10-07 09:30:00,
2013-10-07 04:40:00,42.9,36.5,30.12,North,32767,3.0,3.0,78,0.00,,,0.00,Wunderground v.1.15,2013-10-07 09:40:00,
2013-10-07 04:50:00,43.3,36.9,30.11,North,32767,2.0,9.0,78,0.00,,,0.00,Wunderground v.1.15,2013-10-07 09:50:00,
2013-10-07 05:00:00,43.3,36.6,30.11,North,32767,2.0,9.0,77,0.00,,,0.00,Wunderground v.1.15,2013-10-07 10:00:00,
2013-10-07 05:10:00,42.6,36.2,30.11,North,32767,2.0,9.0,78,0.00,,,0.00,Wunderground v.1.15,2013-10-07 10:10:00,
2013-10-07 05:20:00,42.2,36.2,30.11,North,32767,2.0,9.0,79,0.00,,,0.00,Wunderground v.1.15,2013-10-07 10:20:00,
2013-10-07 05:30:00,42.7,36.6,30.11,North,32767,3.0,3.0,79,0.00,,,0.00,Wunderground v.1.15,2013-10-07 10:30:00,
2013-10-07 05:40:00,42.1,36.4,30.11,North,32767,2.0,9.0,80,0.00,,,0.00,Wunderground v.1.15,2013-10-07 10:40:00,
2013-10-07 05:50:00,42.8,36.7,30.11,North,32767,3.0,3.0,79,0.00,,,0.00,Wunderground v.1.15,2013-10-07 10:50:00,
2013-10-07 06:00:00,42.9,36.5,30.11,North,32767,2.0,2.0,78,0.00,,,0.00,Wunderground v.1.15,2013-10-07 11:00:00,
2013-10-07 06:10:00,42.7,36.3,30.10,North,32767,2.0,9.0,78,0.00,,,0.00,Wunderground v.1.15,2013-10-07 11:10:00,
2013-10-07 06:20:00,42.7,36.6,30.10,North,32767,2.0,9.0,79,0.00,,,0.00,Wunderground v.1.15,2013-10-07 11:20:00,
2013-10-07 06:30:00,43.4,36.7,30.10,North,32767,2.0,2.0,77,0.00,,,0.00,Wunderground v.1.15,2013-10-07 11:30:00,
2013-10-07 06:40:00,43.3,36.6,30.11,North,32767,2.0,9.0,77,0.00,,,0.00,Wunderground v.1.15,2013-10-07 11:40:00,
2013-10-07 06:50:00,43.3,36.6,30.11,North,32767,2.0,9.0,77,0.00,,,0.00,Wunderground v.1.15,2013-10-07 11:50:00,
2013-10-07 07:00:00,42.8,36.4,30.11,North,32767,2.0,9.0,78,0.00,,,0.00,Wunderground v.1.15,2013-10-07 12:00:00,
2013-10-07 07:10:00,42.4,36.3,30.11,North,32767,1.0,1.0,79,0.00,,,0.00,Wunderground v.1.15,2013-10-07 12:10:00,
2013-10-07 07:20:00,41.9,36.2,30.11,North,32767,0.0,9.0,80,0.00,,,0.00,Wunderground v.1.15,2013-10-07 12:20:00,
2013-10-07 07:30:00,42.4,36.7,30.11,North,32767,1.0,9.0,80,0.00,,,0.00,Wunderground v.1.15,2013-10-07 12:30:00,
2013-10-07 07:40:00,42.8,37.1,30.11,North,32767,2.0,2.0,80,0.00,,,0.00,Wunderground v.1.15,2013-10-07 12:40:00,
2013-10-07 07:50:00,43.6,38.2,30.10,North,32767,2.0,9.0,81,0.00,,,0.00,Wunderground v.1.15,2013-10-07 12:50:00,
2013-10-07 08:10:00,44.4,38.3,30.10,North,32767,4.0,4.0,79,0.00,,,0.00,Wunderground v.1.15,2013-10-07 13:10:00,
2013-10-07 08:20:00,44.7,38.3,30.10,North,32767,4.0,4.0,78,0.00,,,0.00,Wunderground v.1.15,2013-10-07 13:20:00,
2013-10-07 08:30:00,44.9,38.8,30.11,North,32767,4.0,4.0,79,0.00,,,0.00,Wunderground v.1.15,2013-10-07 13:30:00,
2013-10-07 08:40:00,45.3,39.2,30.10,North,32767,4.0,9.0,79,0.00,,,0.00,Wunderground v.1.15,2013-10-07 13:40:00,
2013-10-07 08:50:00,46.0,39.5,30.11,North,32767,4.0,4.0,78,0.00,,,0.00,Wunderground v.1.15,2013-10-07 13:50:00,
2013-10-07 09:00:00,46.9,39.7,30.11,North,32767,4.0,4.0,76,0.00,,,0.00,Wunderground v.1.15,2013-10-07 14:00:00,
2013-10-07 09:10:00,47.3,39.4,30.11,North,32767,5.0,9.0,74,0.00,,,0.00,Wunderground v.1.15,2013-10-07 14:10:00,
2013-10-07 09:20:00,47.6,40.1,30.11,North,32767,4.0,4.0,75,0.00,,,0.00,Wunderground v.1.15,2013-10-07 14:20:00,
2013-10-07 09:30:00,48.1,40.5,30.11,North,32767,4.0,9.0,75,0.00,,,0.00,Wunderground v.1.15,2013-10-07 14:30:00,
2013-10-07 09:40:00,48.9,41.0,30.10,North,32767,5.0,9.0,74,0.00,,,0.00,Wunderground v.1.15,2013-10-07 14:40:00,
2013-10-07 09:50:00,50.6,41.5,30.10,North,32767,5.0,9.0,71,0.00,,,0.00,Wunderground v.1.15,2013-10-07 14:50:00,
2013-10-07 10:00:00,52.1,42.2,30.10,North,32767,4.0,4.0,69,0.00,,,0.00,Wunderground v.1.15,2013-10-07 15:00:00,
2013-10-07 10:20:00,55.1,42.3,30.10,North,32767,6.0,6.0,62,0.00,,,0.00,Wunderground v.1.15,2013-10-07 15:20:00,
2013-10-07 10:30:00,56.2,42.1,30.10,North,32767,6.0,10.0,59,0.00,,,0.00,Wunderground v.1.15,2013-10-07 15:30:00,
2013-10-07 10:40:00,57.5,42.4,30.10,North,32767,7.0,9.0,57,0.00,,,0.00,Wunderground v.1.15,2013-10-07 15:40:00,
2013-10-07 10:50:00,58.6,42.9,30.10,North,32767,6.0,6.0,56,0.00,,,0.00,Wunderground v.1.15,2013-10-07 15:50:00,
2013-10-07 11:00:00,60.1,41.4,30.10,North,32767,4.0,10.0,50,0.00,,,0.00,Wunderground v.1.15,2013-10-07 16:00:00,
2013-10-07 11:10:00,60.7,40.3,30.09,North,32767,6.0,9.0,47,0.00,,,0.00,Wunderground v.1.15,2013-10-07 16:10:00,
2013-10-07 11:20:00,61.5,41.6,30.09,North,32767,6.0,6.0,48,0.00,,,0.00,Wunderground v.1.15,2013-10-07 16:20:00,
2013-10-07 11:30:00,62.7,41.6,30.09,North,32767,5.0,5.0,46,0.00,,,0.00,Wunderground v.1.15,2013-10-07 16:30:00,
2013-10-07 11:40:00,63.8,41.5,30.09,North,32767,6.0,6.0,44,0.00,,,0.00,Wunderground v.1.15,2013-10-07 16:40:00,
2013-10-07 11:50:00,64.7,42.3,30.08,North,32767,5.0,9.0,44,0.00,,,0.00,Wunderground v.1.15,2013-10-07 16:50:00,
2013-10-07 12:00:00,65.7,41.3,30.08,North,32767,4.0,13.0,41,0.00,,,0.00,Wunderground v.1.15,2013-10-07 17:00:00,
2013-10-07 12:10:00,66.4,42.0,30.08,North,32767,8.0,8.0,41,0.00,,,0.00,Wunderground v.1.15,2013-10-07 17:10:00,
2013-10-07 12:20:00,67.0,41.9,30.07,North,32767,5.0,5.0,40,0.00,,,0.00,Wunderground v.1.15,2013-10-07 17:20:00,
2013-10-07 12:30:00,68.2,42.3,30.07,North,32767,5.0,9.0,39,0.00,,,0.00,Wunderground v.1.15,2013-10-07 17:30:00,
2013-10-07 12:40:00,68.3,41.7,30.07,North,32767,6.0,9.0,38,0.00,,,0.00,Wunderground v.1.15,2013-10-07 17:40:00,
2013-10-07 12:50:00,69.2,41.1,30.06,North,32767,6.0,6.0,36,0.00,,,0.00,Wunderground v.1.15,2013-10-07 17:50:00,
2013-10-07 13:00:00,69.6,41.5,30.06,North,32767,5.0,9.0,36,0.00,,,0.00,Wunderground v.1.15,2013-10-07 18:00:00,
2013-10-07 13:10:00,69.8,41.6,30.05,North,32767,7.0,9.0,36,0.00,,,0.00,Wunderground v.1.15,2013-10-07 18:10:00,
2013-10-07 13:20:00,70.5,41.5,30.04,North,32767,9.0,13.0,35,0.00,,,0.00,Wunderground v.1.15,2013-10-07 18:20:00,
2013-10-07 13:30:00,70.6,41.6,30.04,North,32767,9.0,13.0,35,0.00,,,0.00,Wunderground v.1.15,2013-10-07 18:30:00,
2013-10-07 13:40:00,71.2,41.4,30.03,North,32767,9.0,9.0,34,0.00,,,0.00,Wunderground v.1.15,2013-10-07 18:40:00,
2013-10-07 13:50:00,72.3,40.0,30.02,North,32767,7.0,13.0,31,0.00,,,0.00,Wunderground v.1.15,2013-10-07 18:50:00,
2013-10-07 14:00:00,72.4,40.0,30.02,North,32767,8.0,8.0,31,0.00,,,0.00,Wunderground v.1.15,2013-10-07 19:00:00,
2013-10-07 14:10:00,73.0,40.6,30.01,North,32767,6.0,6.0,31,0.00,,,0.00,Wunderground v.1.15,2013-10-07 19:10:00,
2013-10-07 14:20:00,73.2,40.7,30.00,North,32767,8.0,8.0,31,0.00,,,0.00,Wunderground v.1.15,2013-10-07 19:20:00,
2013-10-07 14:30:00,74.0,39.7,29.99,North,32767,9.0,13.0,29,0.00,,,0.00,Wunderground v.1.15,2013-10-07 19:30:00,
2013-10-07 14:40:00,74.7,40.3,29.99,North,32767,10.0,10.0,29,0.00,,,0.00,Wunderground v.1.15,2013-10-07 19:40:00,
2013-10-07 14:50:00,74.7,41.2,29.98,North,32767,8.0,9.0,30,0.00,,,0.00,Wunderground v.1.15,2013-10-07 19:50:00,
2013-10-07 15:00:00,74.9,40.5,29.98,North,32767,11.0,11.0,29,0.00,,,0.00,Wunderground v.1.15,2013-10-07 20:00:00,
2013-10-07 15:10:00,75.4,40.0,29.98,North,32767,10.0,10.0,28,0.00,,,0.00,Wunderground v.1.15,2013-10-07 20:10:00,
2013-10-07 15:20:00,76.1,39.7,29.97,North,32767,8.0,8.0,27,0.00,,,0.00,Wunderground v.1.15,2013-10-07 20:20:00,
2013-10-07 15:30:00,76.2,40.7,29.97,North,32767,8.0,9.0,28,0.00,,,0.00,Wunderground v.1.15,2013-10-07 20:30:00,
2013-10-07 15:40:00,76.8,39.3,29.96,North,32767,8.0,12.0,26,0.00,,,0.00,Wunderground v.1.15,2013-10-07 20:40:00,
2013-10-07 15:50:00,77.4,39.8,29.96,North,32767,10.0,15.0,26,0.00,,,0.00,Wunderground v.1.15,2013-10-07 20:50:00,
2013-10-07 16:00:00,77.5,39.9,29.95,North,32767,7.0,7.0,26,0.00,,,0.00,Wunderground v.1.15,2013-10-07 21:00:00,
2013-10-07 16:10:00,77.6,39.0,29.94,North,32767,11.0,11.0,25,0.00,,,0.00,Wunderground v.1.15,2013-10-07 21:10:00,
2013-10-07 16:20:00,78.4,38.6,29.94,North,32767,11.0,11.0,24,0.00,,,0.00,Wunderground v.1.15,2013-10-07 21:20:00,
2013-10-07 16:30:00,78.6,38.8,29.94,North,32767,7.0,14.0,24,0.00,,,0.00,Wunderground v.1.15,2013-10-07 21:30:00,
2013-10-07 16:40:00,78.7,38.9,29.93,North,32767,11.0,11.0,24,0.00,,,0.00,Wunderground v.1.15,2013-10-07 21:40:00,
2013-10-07 16:50:00,79.2,39.3,29.93,North,32767,11.0,11.0,24,0.00,,,0.00,Wunderground v.1.15,2013-10-07 21:50:00,
2013-10-07 17:00:00,79.3,38.3,29.93,North,32767,11.0,11.0,23,0.00,,,0.00,Wunderground v.1.15,2013-10-07 22:00:00,
2013-10-07 17:10:00,79.1,38.1,29.92,North,32767,11.0,11.0,23,0.00,,,0.00,Wunderground v.1.15,2013-10-07 22:10:00,
2013-10-07 17:20:00,79.2,39.3,29.92,North,32767,11.0,11.0,24,0.00,,,0.00,Wunderground v.1.15,2013-10-07 22:20:00,
2013-10-07 17:30:00,79.2,39.3,29.92,North,32767,10.0,12.0,24,0.00,,,0.00,Wunderground v.1.15,2013-10-07 22:30:00,
2013-10-07 17:40:00,79.1,39.2,29.91,North,32767,11.0,11.0,24,0.00,,,0.00,Wunderground v.1.15,2013-10-07 22:40:00,
2013-10-07 17:50:00,79.1,39.2,29.91,North,32767,10.0,10.0,24,0.00,,,0.00,Wunderground v.1.15,2013-10-07 22:50:00,
2013-10-07 18:00:00,78.9,39.0,29.91,North,32767,10.0,12.0,24,0.00,,,0.00,Wunderground v.1.15,2013-10-07 23:00:00,
2013-10-07 18:10:00,78.1,39.4,29.91,North,32767,9.0,9.0,25,0.00,,,0.00,Wunderground v.1.15,2013-10-07 23:10:00,
2013-10-07 18:20:00,77.5,40.9,29.91,North,32767,8.0,8.0,27,0.00,,,0.00,Wunderground v.1.15,2013-10-07 23:20:00,
2013-10-07 18:30:00,76.6,42.0,29.91,North,32767,7.0,7.0,29,0.00,,,0.00,Wunderground v.1.15,2013-10-07 23:30:00,
2013-10-07 18:40:00,75.7,42.1,29.90,North,32767,7.0,7.0,30,0.00,,,0.00,Wunderground v.1.15,2013-10-07 23:40:00,
2013-10-07 18:50:00,74.5,41.9,29.91,North,32767,7.0,16.0,31,0.00,,,0.00,Wunderground v.1.15,2013-10-07 23:50:00,
2013-10-07 19:00:00,72.9,42.1,29.90,North,32767,6.0,6.0,33,0.00,,,0.00,Wunderground v.1.15,2013-10-08 00:00:00,
2013-10-07 19:10:00,71.1,42.0,29.90,North,32767,6.0,16.0,35,0.00,,,0.00,Wunderground v.1.15,2013-10-08 00:10:00,
2013-10-07 19:20:00,69.8,41.6,29.90,North,32767,6.0,16.0,36,0.00,,,0.00,Wunderground v.1.15,2013-10-08 00:20:00,
2013-10-07 19:30:00,68.7,41.4,29.91,North,32767,6.0,6.0,37,0.00,,,0.00,Wunderground v.1.15,2013-10-08 00:30:00,
2013-10-07 19:40:00,67.6,41.1,29.90,North,32767,6.0,16.0,38,0.00,,,0.00,Wunderground v.1.15,2013-10-08 00:40:00,
2013-10-07 19:50:00,66.8,41.7,29.91,North,32767,7.0,16.0,40,0.00,,,0.00,Wunderground v.1.15,2013-10-08 00:50:00,
2013-10-07 20:00:00,66.3,41.2,29.91,North,32767,6.0,16.0,40,0.00,,,0.00,Wunderground v.1.15,2013-10-08 01:00:00,
2013-10-07 20:10:00,65.7,41.3,29.90,North,32767,7.0,16.0,41,0.00,,,0.00,Wunderground v.1.15,2013-10-08 01:10:00,
2013-10-07 20:20:00,65.2,40.9,29.90,North,32767,7.0,7.0,41,0.00,,,0.00,Wunderground v.1.15,2013-10-08 01:20:00,
2013-10-07 20:30:00,65.0,41.3,29.90,North,32767,8.0,16.0,42,0.00,,,0.00,Wunderground v.1.15,2013-10-08 01:30:00,
2013-10-07 20:40:00,64.7,41.7,29.90,North,32767,8.0,16.0,43,0.00,,,0.00,Wunderground v.1.15,2013-10-08 01:40:00,
2013-10-07 20:50:00,64.5,41.5,29.90,North,32767,8.0,16.0,43,0.00,,,0.00,Wunderground v.1.15,2013-10-08 01:50:00,
2013-10-07 21:00:00,64.1,41.7,29.90,North,32767,9.0,9.0,44,0.00,,,0.00,Wunderground v.1.15,2013-10-08 02:00:00,
2013-10-07 21:10:00,63.5,41.8,29.90,North,32767,8.0,16.0,45,0.00,,,0.00,Wunderground v.1.15,2013-10-08 02:10:00,
2013-10-07 21:20:00,62.9,41.8,29.90,North,32767,8.0,8.0,46,0.00,,,0.00,Wunderground v.1.15,2013-10-08 02:20:00,
2013-10-07 21:30:00,62.1,41.6,29.90,North,32767,8.0,8.0,47,0.00,,,0.00,Wunderground v.1.15,2013-10-08 02:30:00,
2013-10-07 21:40:00,61.3,42.0,29.90,North,32767,8.0,16.0,49,0.00,,,0.00,Wunderground v.1.15,2013-10-08 02:40:00,
2013-10-07 21:50:00,60.9,41.6,29.90,North,32767,9.0,9.0,49,0.00,,,0.00,Wunderground v.1.15,2013-10-08 02:50:00,
2013-10-07 22:00:00,59.9,41.7,29.90,North,32767,7.0,7.0,51,0.00,,,0.00,Wunderground v.1.15,2013-10-08 03:00:00,
2013-10-07 22:10:00,59.1,41.5,29.90,North,32767,7.0,7.0,52,0.00,,,0.00,Wunderground v.1.15,2013-10-08 03:10:00,
2013-10-07 22:20:00,58.7,41.6,29.90,North,32767,7.0,16.0,53,0.00,,,0.00,Wunderground v.1.15,2013-10-08 03:20:00,
2013-10-07 22:30:00,57.4,41.4,29.90,North,32767,6.0,16.0,55,0.00,,,0.00,Wunderground v.1.15,2013-10-08 03:30:00,
2013-10-07 22:40:00,57.2,41.6,29.90,North,32767,6.0,16.0,56,0.00,,,0.00,Wunderground v.1.15,2013-10-08 03:40:00,
2013-10-07 23:00:00,58.9,41.3,29.90,North,32767,9.0,16.0,52,0.00,,,0.00,Wunderground v.1.15,2013-10-08 04:00:00,
2013-10-07 23:10:00,60.0,40.8,29.89,North,32767,11.0,11.0,49,0.00,,,0.00,Wunderground v.1.15,2013-10-08 04:10:00,
2013-10-07 23:20:00,60.4,40.6,29.89,North,32767,10.0,16.0,48,0.00,,,0.00,Wunderground v.1.15,2013-10-08 04:20:00,
2013-10-07 23:30:00,60.7,40.3,29.89,North,32767,11.0,19.0,47,0.00,,,0.00,Wunderground v.1.15,2013-10-08 04:30:00,
2013-10-07 23:40:00,60.7,40.3,29.89,North,32767,12.0,12.0,47,0.00,,,0.00,Wunderground v.1.15,2013-10-08 04:40:00,
2013-10-07 23:50:00,60.2,40.4,29.89,North,32767,11.0,11.0,48,0.00,,,0.00,Wunderground v.1.15,2013-10-08 04:50:00,